Location: Chervonnoye
(48.6000°N, 34.4000°E)
Time: 01:51:46
(UTC+00:00)

NOAA 15 - Pass Details

Date: 04 December 2021
Orbit: 797 x 812 km, 98.7° (Epoch: 17 January)

Event Time Altitude Azimuth Distance (km) Brightness Sun altitude
Rises 15:46:43 0° 145° (SE) 3,318 7.6 -18.8°
Reaches altitude 10° 15:49:07 10° 140° (SE) 2,389 6.8 -19.2°
Maximum altitude 15:54:09 47° 68° (ENE) 1,059 4.8 -20.0°
Drops below altitude 10° 15:59:12 10° 355° (N) 2,395 7.0 -20.8°
Sets 16:01:36 0° 350° (N) 3,327 7.8 -21.2°
